Location: B?ogocice
(50.2413°N, 20.2361°E)
Time: 16:40:54
(UTC+00:00)

SAR-Lupe-4 - Pass Details

Date: 16 September 2024
Orbit: 476 x 483 km, 98.1° (Epoch: 03 October)

Event Time Altitude Azimuth Distance (km) Brightness Sun altitude
Rises 02:10:16 0° 17° (NNE) 2,557 8.0 -20.0°
Reaches altitude 10° 02:12:22 10° 21° (NNE) 1,671 7.0 -19.7°
Maximum altitude 02:15:55 61° 102° (ESE) 550 3.9 -19.2°
Enters shadow 02:17:34 29° 174° (S) 914 4.7 -18.9°
